FW2265 Houston TX US current weather conditions

sailwx.info

Wind from 202

Air temperature 26.1° C
Dewpoint 24.5° C

Last reported at 2020-Aug-09 08:02 UTC.
Time now 2020-Aug-09 08:39 UTC

Location: N 29°35' W 095°07'.
View on Google Maps.

See reports from other nearby stations

  
Tides and Currents Weather Stations Pressure Air Temp Water Temp Dewpoint Dewpoint Depression Visibility Wind Speed Wind Dir Waves Ship Positions
date/time (UTC)wind fromknots sea level pressurealtimeterstation pressurevisibilityair tempwater tempwave heightnotes
2020-Aug-09 08:02 202 26.1
2020-Aug-09 07:52 202 26.1
2020-Aug-09 07:42 202 26.1
2020-Aug-09 07:33 202 26.1
2020-Aug-09 07:23 202 26.7
2020-Aug-09 07:13 202 26.7
2020-Aug-09 07:03 202 26.7
2020-Aug-09 06:53 202 27.2
2020-Aug-09 06:44 202 27.2
2020-Aug-09 06:35 202 27.2
2020-Aug-09 06:25 202 27.2
2020-Aug-09 06:16 202 27.2
2020-Aug-09 06:07 202 27.2
2020-Aug-09 05:57 202 27.2
2020-Aug-09 05:48 202 27.2
2020-Aug-09 05:38 202 27.2
2020-Aug-09 05:29 202 27.8
2020-Aug-09 05:19 202 27.8
2020-Aug-09 05:09 202 27.8
2020-Aug-09 04:59 202 27.8
2020-Aug-09 04:50 202 27.8
2020-Aug-09 04:40 202 27.8
2020-Aug-09 04:31 202 27.8
2020-Aug-09 04:21 202 27.8
2020-Aug-09 04:12 202 28.3
2020-Aug-09 04:02 202 28.3
2020-Aug-09 03:53 202 28.3
2020-Aug-09 03:44 202 28.3
2020-Aug-09 03:34 202 28.3
2020-Aug-09 03:24 202 28.3
2020-Aug-09 03:15 135 28.3
2020-Aug-09 03:05 112 28.9
2020-Aug-09 02:55 247 28.9
2020-Aug-09 02:46 180 28.9
2020-Aug-09 02:37 157 28.9
2020-Aug-09 02:28 247 28.9
2020-Aug-09 02:19 180 29.4
2020-Aug-09 02:09 202 29.4
2020-Aug-09 02:00 225 29.4
2020-Aug-09 01:50 157 29.4
2020-Aug-09 01:40 146 29.4
2020-Aug-09 01:31 202 0 30.0
2020-Aug-09 01:22 212 30.0
2020-Aug-09 01:12 239 30.0
2020-Aug-09 01:03 247 30.0
2020-Aug-09 00:54 247 30.6
2020-Aug-09 00:45 225 30.6
2020-Aug-09 00:35 215 31.1
2020-Aug-09 00:25 205 31.1
2020-Aug-09 00:15 228 31.7
2020-Aug-09 00:06 067 31.7
2020-Aug-08 23:56 169 31.7
2020-Aug-08 23:47 225 0 31.7
2020-Aug-08 23:37 179 32.2
2020-Aug-08 23:27 207 32.2
2020-Aug-08 23:18 202 32.8
2020-Aug-08 23:08 178 32.8
2020-Aug-08 22:58 240 33.3
2020-Aug-08 22:48 204 33.3
2020-Aug-08 22:39 112 33.3
2020-Aug-08 22:29 078 33.3
2020-Aug-08 22:19 215 33.3
2020-Aug-08 22:10 225 33.9
2020-Aug-08 22:00 045 34.4
2020-Aug-08 21:50 191 34.4
2020-Aug-08 21:40 206 33.9
2020-Aug-08 21:30 173 33.3
2020-Aug-08 21:21 067 33.3
2020-Aug-08 21:11 067 33.9
2020-Aug-08 21:02 047 33.3
2020-Aug-08 20:51 074 33.3
2020-Aug-08 20:41 304 0 32.8
2020-Aug-08 20:32 067 31.7
2020-Aug-08 20:22 022 31.1
2020-Aug-08 20:13 022 30.6
2020-Aug-08 20:03 040 1 30.0
2020-Aug-08 19:53 022 28.9
2020-Aug-08 19:43 067 28.3
2020-Aug-08 19:34 067 28.3
2020-Aug-08 19:24 067 28.3
2020-Aug-08 19:15 045 0 29.4
2020-Aug-08 19:05 102 31.1
2020-Aug-08 18:55 331 32.2
2020-Aug-08 18:45 247 31.1
2020-Aug-08 18:36 247 31.1
2020-Aug-08 18:26 198 32.2
2020-Aug-08 18:16 157 32.2
2020-Aug-08 18:07 045 32.2
2020-Aug-08 17:57 067 0 32.2
2020-Aug-08 17:48 022 32.2
2020-Aug-08 17:38 056 31.7
2020-Aug-08 17:29 022 32.2
2020-Aug-08 17:19 225 32.8
2020-Aug-08 17:09 022 33.3
2020-Aug-08 16:59 045 32.8
2020-Aug-08 16:49 231 33.3
2020-Aug-08 16:39 090 33.3
2020-Aug-08 16:30 202 33.3
2020-Aug-08 16:20 157 32.8
2020-Aug-08 16:10 090 31.7
2020-Aug-08 16:01 225 31.7
2020-Aug-08 15:51 090 32.2
2020-Aug-08 15:42 237 32.2
2020-Aug-08 15:32 223 33.3
2020-Aug-08 15:22 160 32.8
2020-Aug-08 15:12 205 32.8
2020-Aug-08 15:02 088 32.8
2020-Aug-08 14:53 090 32.2
2020-Aug-08 14:43 202 31.7
2020-Aug-08 14:33 202 31.7
2020-Aug-08 14:24 137 31.1
2020-Aug-08 14:15 202 31.1
2020-Aug-08 14:06 067 30.6
2020-Aug-08 13:57 292 30.6
2020-Aug-08 13:47 292 30.0
2020-Aug-08 13:38 292 29.4
2020-Aug-08 13:28 292 27.8
2020-Aug-08 13:19 292 27.2
2020-Aug-08 13:10 292 26.7
2020-Aug-08 13:00 292 26.1
2020-Aug-08 12:51 292 26.1
2020-Aug-08 12:41 292 25.6
2020-Aug-08 12:31 292 25.6
2020-Aug-08 12:22 292 25.0
2020-Aug-08 12:12 292 25.0
2020-Aug-08 12:03 292 25.0
2020-Aug-08 11:53 292 25.0
2020-Aug-08 11:44 292 25.0
2020-Aug-08 11:34 292 25.0
2020-Aug-08 11:25 292 25.0
2020-Aug-08 11:15 292 25.0
2020-Aug-08 11:06 292 25.0
2020-Aug-08 10:56 292 25.0
2020-Aug-08 10:46 292 25.0
2020-Aug-08 10:36 292 25.0
2020-Aug-08 10:26 292 25.0
2020-Aug-08 10:16 292 25.0
2020-Aug-08 10:06 292 25.0
2020-Aug-08 09:56 292 25.0
2020-Aug-08 09:46 292 25.0
2020-Aug-08 09:37 292 25.0
2020-Aug-08 09:28 292 25.0
2020-Aug-08 09:18 292 25.6
2020-Aug-08 09:08 292 25.6
2020-Aug-08 08:59 292 25.6
2020-Aug-08 08:49 292 25.6
2020-Aug-08 08:39 292 25.6
2020-Aug-08 08:30 292 25.6
2020-Aug-08 08:20 292 25.6
2020-Aug-08 08:11 292 25.6
2020-Aug-08 08:01 292 25.6
2020-Aug-08 07:51 292 26.1
2020-Aug-08 07:41 292 26.1
2020-Aug-08 07:32 292 26.1
2020-Aug-08 07:22 292 26.1
2020-Aug-08 07:12 292 26.1
2020-Aug-08 07:03 292 26.1
2020-Aug-08 06:54 292 26.1
2020-Aug-08 06:44 292 26.1
2020-Aug-08 06:35 292 26.7
2020-Aug-08 06:24 292 26.7
2020-Aug-08 06:14 292 26.7
2020-Aug-08 06:05 292 26.7
2020-Aug-08 05:55 292 26.7
2020-Aug-08 05:46 292 27.2
2020-Aug-08 05:36 292 27.2
2020-Aug-08 05:26 292 27.2
2020-Aug-08 05:16 292 27.2
2020-Aug-08 05:06 292 27.2
2020-Aug-08 04:57 292 27.2
2020-Aug-08 04:47 292 27.2
2020-Aug-08 04:37 292 27.2
2020-Aug-08 04:27 292 27.8
2020-Aug-08 04:18 292 27.8
2020-Aug-08 04:09 292 27.8
2020-Aug-08 04:00 292 27.8
2020-Aug-08 03:51 292 27.8
2020-Aug-08 03:42 292 28.3
2020-Aug-08 03:32 292 28.3
2020-Aug-08 03:22 292 28.3
2020-Aug-08 03:13 292 28.3
2020-Aug-08 03:03 292 28.3
2020-Aug-08 02:54 292 28.9
2020-Aug-08 02:44 292 28.9
2020-Aug-08 02:34 292 28.9
2020-Aug-08 02:24 292 28.9
2020-Aug-08 02:15 225 28.9
2020-Aug-08 02:05 225 29.4
2020-Aug-08 01:55 225 29.4
2020-Aug-08 01:45 225 29.4
2020-Aug-08 01:36 225 29.4
2020-Aug-08 01:26 198 29.4
2020-Aug-08 01:17 045 30.0
2020-Aug-08 01:07 045 30.0
2020-Aug-08 00:58 045 30.0
2020-Aug-08 00:48 045 30.6
2020-Aug-08 00:38 202 30.6
2020-Aug-08 00:28 202 0 31.1
2020-Aug-08 00:18 247 31.1
2020-Aug-08 00:09 202 31.1
2020-Aug-08 00:00 224 0 31.7
2020-Aug-07 23:51 004 31.7
2020-Aug-07 23:41 127 31.7
2020-Aug-07 23:31 180 32.2
2020-Aug-07 23:22 131 32.2
2020-Aug-07 23:12 107 32.2
2020-Aug-07 23:03 206 32.2
2020-Aug-07 22:53 071 1 32.2
2020-Aug-07 22:44 088 32.8
2020-Aug-07 22:34 082 2 32.8
2020-Aug-07 22:25 078 32.8
2020-Aug-07 22:16 192 32.8
2020-Aug-07 22:06 247 32.8
2020-Aug-07 21:56 225 32.8
2020-Aug-07 21:47 225 33.3
2020-Aug-07 21:38 108 32.8
2020-Aug-07 21:28 187 32.8
2020-Aug-07 21:19 322 32.8
2020-Aug-07 21:09 084 32.8
2020-Aug-07 20:59 101 33.9
2020-Aug-07 20:50 049 34.4
2020-Aug-07 20:41 087 1 34.4
2020-Aug-07 20:31 247 33.9
2020-Aug-07 20:22 081 0 33.9
2020-Aug-07 20:12 038 33.9
2020-Aug-07 20:03 090 33.9
2020-Aug-07 19:53 083 0 34.4
2020-Aug-07 19:44 067 0 34.4
2020-Aug-07 19:34 057 0 34.4
2020-Aug-07 19:25 227 34.4
2020-Aug-07 19:16 177 34.4
2020-Aug-07 19:05 135 34.4
2020-Aug-07 18:56 048 1 33.9
2020-Aug-07 18:46 083 33.3
2020-Aug-07 18:37 072 33.3
2020-Aug-07 18:27 213 32.8
2020-Aug-07 18:18 067 0 32.8
2020-Aug-07 18:09 068 1 32.8
2020-Aug-07 17:59 069 33.3
2020-Aug-07 17:50 138 33.3
2020-Aug-07 17:41 307 0 33.9
2020-Aug-07 17:32 201 34.4
2020-Aug-07 17:22 090 33.9
2020-Aug-07 17:13 090 33.3
2020-Aug-07 17:04 079 1 33.3
2020-Aug-07 16:55 037 33.3
2020-Aug-07 16:45 058 2 32.8
2020-Aug-07 16:36 045 33.3
2020-Aug-07 16:27 202 32.8
2020-Aug-07 16:18 225 32.8
2020-Aug-07 16:08 189 33.3
2020-Aug-07 15:59 180 33.3
2020-Aug-07 15:49 269 33.9
2020-Aug-07 15:40 077 33.3
2020-Aug-07 15:30 270 32.8
2020-Aug-07 15:20 067 32.8
2020-Aug-07 15:10 067 32.8
2020-Aug-07 15:00 090 32.2
2020-Aug-07 14:50 187 32.2
2020-Aug-07 14:41 180 31.7
2020-Aug-07 14:32 202 31.7
2020-Aug-07 14:22 225 31.1
2020-Aug-07 14:13 247 31.1
2020-Aug-07 14:03 247 30.6
2020-Aug-07 13:53 247 30.0
2020-Aug-07 13:43 247 28.9
2020-Aug-07 13:33 247 28.3
2020-Aug-07 13:23 247 27.8
2020-Aug-07 13:14 247 26.7
2020-Aug-07 13:04 247 26.1
2020-Aug-07 12:54 247 26.1
2020-Aug-07 12:45 247 25.6
2020-Aug-07 12:35 247 25.0
2020-Aug-07 12:25 247 25.0
2020-Aug-07 12:15 247 25.0
2020-Aug-07 12:06 247 25.0
2020-Aug-07 11:56 247 25.0
2020-Aug-07 11:47 247 25.0
2020-Aug-07 11:37 247 25.0
2020-Aug-07 11:28 247 25.0
2020-Aug-07 11:18 247 25.0
2020-Aug-07 11:08 247 25.0
2020-Aug-07 10:58 247 25.0
2020-Aug-07 10:49 247 25.0
2020-Aug-07 10:40 247 25.0
2020-Aug-07 10:30 247 25.0
2020-Aug-07 10:21 247 25.0
2020-Aug-07 10:12 247 25.0
2020-Aug-07 10:03 247 25.0
2020-Aug-07 09:53 247 25.0
2020-Aug-07 09:44 247 25.0
2020-Aug-07 09:34 247 25.0
2020-Aug-07 09:24 247 25.6
2020-Aug-07 09:15 247 25.6
2020-Aug-07 09:06 247 25.6
2020-Aug-07 08:56 247 25.6
2020-Aug-07 08:47 247 25.6
2020-Aug-07 08:37 247 25.6
2020-Aug-07 08:27 247 25.6
2020-Aug-07 08:18 247 25.6
2020-Aug-07 08:09 247 25.6